Saint Johnsbury, VT

1:17 AM EST on December 03, 2016 (GMT -0500)
St. Johnsbury

Weather History for K1V4 - March, 2014

Change the Weather History Date:

Friday, March 28, 2014

  Actual Average Record
Temperature  
Mean Temperature 35 °F 36 °F  
Max Temperature 40 °F 47 °F 78 °F (1945)
Min Temperature 29 °F 25 °F 1 °F (1956)
Degree Days  
Heating Degree Days 30 29  
Month to date heating degree days 1335 991  
Since 1 July heating degree days 7367 6715  
Cooling Degree Days 0 0  
Month to date cooling degree days 0 0  
Year to date cooling degree days 0 0  
Moisture  
Dew Point 28 °F    
Average Humidity 65    
Maximum Humidity 92    
Minimum Humidity 38    
Precipitation  
Precipitation 0.21 in 0.09 in 0.86 in (1919)
Month to date precipitation 2.26 2.25  
Year to date precipitation 7.39 6.93  
Sea Level Pressure  
Sea Level Pressure 29.98 in    
Wind  
Wind Speed - (North)    
Max Wind Speed -    
Max Gust Speed -    
T = Trace of Precipitation, MM = Missing Value Source: NWS Daily Summary

Daily Weather History Graph

Daily Weather History Graph

Search for Another Location

Airport or City:

Trip Planner

Search our weather history database for the weather conditions in past years. The results will help you decide how hot, cold, wet, or windy it might be!

Date:

Astronomy

Mar. 28, 2014 Rise Set
Actual Time 6:36 AM EDT 7:10 PM EDT
Civil Twilight 6:07 AM EDT 7:39 PM EDT
Nautical Twilight 5:32 AM EDT 8:14 PM EDT
Astronomical Twilight 4:57 AM EDT 8:50 PM EDT
Moon 5:10 AM EDT (3/28) 4:59 PM EDT (3/28)
Length of Visible Light 13h 32m
Length of Day
12h 33m
Waning Crescent, 6% of the Moon is Illuminated
Mar 28
Waning Crescent
Mar 30
New
Apr 7
First Quarter
Apr 15
Full
Apr 22
Last Quarter

Hourly Weather History & Observations

Time (EDT) Temp. Dew Point Humidity Pressure Visibility Wind Dir Wind Speed Gust Speed Precip Events Conditions
12:54 AM 33.1 °F 10.0 °F 38% 30.12 in - North - - N/A   Unknown
1:54 AM 34.0 °F 15.1 °F 46% 30.11 in - North - - N/A   Unknown
2:54 AM 34.0 °F 14.0 °F 44% 30.10 in - North - - N/A   Unknown
3:54 AM 34.0 °F 12.9 °F 42% 30.09 in - North - - N/A   Unknown
4:54 AM 34.0 °F 15.1 °F 46% 30.06 in - North - - N/A   Unknown
5:54 AM 30.0 °F 25.0 °F 82% 30.06 in - North - - N/A   Unknown
6:54 AM 28.9 °F 26.1 °F 89% 30.05 in - North - - 0.03 in   Unknown
7:54 AM 30.0 °F 26.1 °F 85% 30.04 in - North - - N/A   Unknown
8:54 AM 30.0 °F 28.0 °F 92% 30.02 in - North - - 0.06 in   Unknown
9:54 AM 32.0 °F 28.0 °F 85% 29.98 in - North - - 0.04 in   Unknown
10:54 AM 33.1 °F 28.9 °F 85% 29.97 in - North - - 0.01 in   Unknown
11:54 AM 34.0 °F 30.0 °F 85% 29.96 in - North - - 0.01 in   Unknown
12:54 PM 35.1 °F 30.9 °F 85% 29.92 in - North - - 0.01 in   Unknown
1:54 PM 36.0 °F 30.9 °F 82% 29.90 in - North - - N/A   Unknown
2:54 PM 37.0 °F 32.0 °F 82% 29.87 in - North - - N/A   Unknown
3:54 PM 37.0 °F 34.0 °F 89% 29.88 in - North - - 0.01 in   Unknown
4:54 PM 37.0 °F 35.1 °F 93% 29.87 in - North - - 0.03 in   Unknown
5:54 PM 37.9 °F 35.1 °F 89% 29.88 in - North - - N/A   Unknown
6:54 PM 37.9 °F 35.1 °F 89% 29.88 in - North - - N/A   Unknown
7:54 PM 39.0 °F 36.0 °F 89% 29.89 in - North - - N/A   Unknown
8:54 PM 39.0 °F 36.0 °F 89% 29.92 in - North - - N/A   Unknown
9:54 PM 39.9 °F 37.0 °F 89% 29.91 in - North - - 0.01 in   Unknown
10:54 PM 39.9 °F 37.9 °F 93% 29.95 in - North - - N/A   Unknown
11:54 PM 39.0 °F 37.0 °F 93% 29.98 in - North - - N/A   Unknown